Location: Melbourne
(37.8170°S, 144.9670°E)
Time: 05:50:05
(UTC+11:00)

ADEOS Rocket - Visible Passes

Search period start: 29 March 2015 00:00
Search period end: 07 April 2015 23:00
Orbit: 859 x 1307 km, 98.7° (Epoch: 26 March)

Date Brightness Start Highest point End Pass type
(mag) Time Alt. Az. Time Alt. Az. Time Alt. Az.
29 Mar 3.5 21:02:37 10° SSE 21:09:28 55° E 21:16:54 10° N visible
29 Mar 5.0 22:48:52 10° S 22:54:42 29° WSW 23:00:43 10° WNW visible
30 Mar 4.3 20:14:48 10° SE 20:20:16 24° E 20:26:18 10° NE visible
30 Mar 3.8 21:59:12 10° S 22:06:07 62° WSW 22:13:33 10° NNW visible
30 Mar 6.0 23:49:06 10° SW 23:50:39 10° WSW 23:51:41 10° WSW visible
31 Mar 3.4 21:10:16 10° SSE 21:17:19 64° E 21:24:55 10° N visible
31 Mar 5.2 22:56:49 10° SSW 23:02:26 25° WSW 23:08:08 10° WNW visible
01 Apr 4.2 20:22:13 10° SE 20:28:12 29° E 20:34:41 10° NNE visible
01 Apr 4.0 22:07:01 10° S 22:13:55 54° WSW 22:21:16 10° NW visible
02 Apr 5.0 19:36:56 10° ESE 19:38:34 11° E 19:40:55 10° ENE visible
02 Apr 3.3 21:17:58 10° SSE 21:25:10 73° ENE 21:32:52 10° N visible
02 Apr 5.4 23:04:49 10° SSW 23:10:10 22° WSW 23:15:29 10° WNW visible
03 Apr 4.0 20:29:43 10° SSE 20:36:06 33° E 20:42:59 10° NNE visible
03 Apr 4.3 22:14:51 10° S 22:21:42 47° WSW 22:28:55 10° NW visible
04 Apr 4.8 19:43:18 10° ESE 19:46:34 14° E 19:50:29 10° ENE visible
04 Apr 3.4 21:25:42 10° SSE 21:33:01 83° ENE 21:40:47 10° NNW visible
04 Apr 5.6 23:12:53 10° SSW 23:17:53 20° WSW 23:22:44 10° WNW visible
05 Apr 3.9 19:37:16 10° SSE 19:44:01 39° E 19:51:11 10° NNE visible
05 Apr 4.5 21:22:43 10° S 21:29:29 42° WSW 21:36:32 10° NW visible
06 Apr 5.9 05:55:02 10° ESE 05:56:44 12° ESE 05:58:50 10° SE visible
06 Apr 4.7 18:50:16 10° SE 18:54:34 17° E 18:59:26 10° NE visible
06 Apr 3.4 20:33:27 10° SSE 20:40:51 87° WSW 20:48:38 10° NNW visible
06 Apr 5.7 22:21:01 10° SSW 22:25:34 17° WSW 22:29:54 10° W visible
07 Apr 3.7 19:44:53 10° SSE 19:51:55 45° E 19:59:19 10° N visible
07 Apr 4.7 21:30:37 10° S 21:37:15 37° WSW 21:44:05 10° NW visible
